Regional Weather Roundup
Issued by NWS

Home | Current Version | Previous Version | Graphics & Text | Print | Product List | Glossary On
Versions: 1 2 3 4 5 6 7 8 9 10 11 12 13 14 15 16 17 18 19 20 21 22 23 24 25 26 27 28 29 30 31 32 33 34 35 36 37 38 39 40 41 42 43 44 45 46 47 48 49 50
000
ASUS43 KFSD 241510
RWRSD

WEATHER ROUNDUP FOR SOUTH DAKOTA
NATIONAL WEATHER SERVICE SIOUX FALLS SD
1000 AM CDT SAT SEP 24 2016

NOTE: "FAIR" INDICATES FEW OR NO CLOUDS BELOW 12,000 FEET WITH NO
SIGNIFICANT WEATHER AND/OR OBSTRUCTIONS TO VISIBILITY.


SDZ001>005-009-010-012>017-241600-
NORTHWEST AND NORTH CENTRAL SOUTH DAKOTA

CITY           SKY/WX    TMP DP  RH WIND       PRES   REMARKS
BUFFALO          N/A     57  56  96 NE14      29.63F
FAITH            N/A     57  57 100 SW15      29.75R
MOBRIDGE       CLOUDY    71  62  73 S18       29.74R
$$

SDZ012>016-024>037-041>051-057-063-072>074-241600-
SOUTHWEST AND SOUTH CENTRAL SOUTH DAKOTA

CITY           SKY/WX    TMP DP  RH WIND       PRES   REMARKS
RAPID CTY ARPT SUNNY     56  46  69 S5        29.79R
PIERRE         CLOUDY    63  54  72 SW12      29.78S
CUSTER         CLOUDY    43  40  89 W16G26    29.86F FOG
ELLSWORTH AFB  SUNNY     58  47  64 SW12      29.78R
PHILIP         SUNNY     60  49  66 SW18G26   29.80R
PINE RIDGE     SUNNY     55  43  63 W17G24    29.87F
WINNER         CLOUDY    64  49  57 W13       29.86R
$$

SDZ004>011-016>023-039-040-241600-
NORTHEAST SOUTH DAKOTA

CITY           SKY/WX    TMP DP  RH WIND       PRES   REMARKS
ABERDEEN       MOSUNNY   75  65  70 SE21G33   29.81R
WATERTOWN      PTSUNNY   72  65  78 SE23G31   29.88F
BROOKINGS      SUNNY     71  66  84 SE18G28   29.90F
SISSETON         N/A     70  66  87 S16G25    29.88S
$$

SDZ017-020-022-023-036>040-048>070-241600-
SOUTHEAST SOUTH DAKOTA

CITY           SKY/WX    TMP DP  RH WIND       PRES   REMARKS
SIOUX FALLS    PTSUNNY   73  66  78 SE18G26   29.91F
HURON          PTSUNNY   72  64  76 S16G25    29.82F
CHAMBERLAIN    CLOUDY    65  55  70 SW10      29.84R
MITCHELL       CLOUDY    73  65  75 SE14G24   29.85R
YANKTON        CLOUDY    72  66  83 SE10      29.87S
$$

ABBREVIATIONS USED IN REMARKS
   TC - TEMPERATURE IN CELSIUS
  WCI - WIND CHILL INDEX
   HX - HEAT INDEX
  VSB - VISIBILITY




USA.gov is the U.S. government's official web portal to all federal, state and local government web resources and services.